Regional Weather Roundup
Issued by NWS Little Rock, AR

Home | Current Version | Previous Version | Graphics & Text | Print | Product List | Glossary On
Versions: 1 2 3 4 5 6 7 8 9 10 11 12 13 14 15 16 17 18 19 20 21 22 23 24 25 26 27 28 29 30 31 32 33 34 35 36 37 38 39 40 41 42 43 44 45 46 47 48 49 50
000
ASUS44 KLZK 241105
RWRLZK

WEATHER ROUNDUP FOR ARKANSAS
NATIONAL WEATHER SERVICE LITTLE ROCK AR
600 AM CDT THU JUL 24 2014

NOTE: "FAIR" INDICATES FEW OR NO CLOUDS BELOW 12,000 FEET WITH NO
SIGNIFICANT WEATHER AND/OR OBSTRUCTIONS TO VISIBILITY.

ARZ001-003-010-029-241200-
NORTHWEST ARKANSAS

CITY           SKY/WX    TMP DP  RH WIND       PRES   REMARKS
FAYETTEVILLE   FOG       61  61 100 CALM      30.08S VSB 1/2
FORT SMITH     CLEAR     67  66  97 W3        30.04R
HARRISON       CLOUDY    70  68  93 E6        30.11R
BENTONVILLE    PTCLDY    66  63  88 CALM      30.09S
ROGERS         MOCLDY    68  66  93 E9        30.10R
SILOAM SPGS    CLEAR     64  57  77 CALM      30.09R
HIGHFILL       PTCLDY    63  63 100 CALM      30.08R FOG
SPRINGDALE     MOCLDY    64  64 100 S7        30.10
$$

ARZ004-005-016-241200-
NORTH CENTRAL ARKANSAS

CITY           SKY/WX    TMP DP  RH WIND       PRES   REMARKS
BATESVILLE     CLOUDY    68  68 100 CALM      30.06R
FLIPPIN        CLOUDY    70  68  94 NE5       30.09R
MTN HOME       CLOUDY    68  67  96 NE5       30.09R
$$

ARZ040-041-241200-
WEST CENTRAL ARKANSAS

CITY           SKY/WX    TMP DP  RH WIND       PRES   REMARKS
MENA           PTCLDY    64  64 100 CALM      30.06R
MOUNT IDA      PTCLDY    64  63  96 CALM      30.04R FOG
$$

ARZ009-017-025-026-028-241200-
NORTHEAST ARKANSAS

CITY           SKY/WX    TMP DP  RH WIND       PRES   REMARKS
CORNING        FAIR      64  59  82 N6        30.07R
JONESBORO      PTCLDY    67  60  78 NE6       30.04R
NEWPORT        MOCLDY    69  64  84 N9G18     30.06R
WALNUT RIDGE   PTCLDY    66  59  77 NE9       30.05R
BLYTHEVILLE    CLEAR     65  63  93 N9        30.04R
$$

ARZ022-023-033-042-044-241200-
CENTRAL ARKANSAS

CITY           SKY/WX    TMP DP  RH WIND       PRES   REMARKS
LITTLE ROCK    PTCLDY    69  66  90 N3        30.04R
N LITTLE ROCK    N/A     68  68 100 N5        30.04R
JACKSONVILLE   CLOUDY    68 N/A N/A CALM      30.04R
SEARCY         CLEAR     69  68  97 N6        30.05R
HOT SPRINGS    CLOUDY    67  67 100 CALM      30.06R FOG
RUSSELLVILLE   FOG       69  67  93 CALM      30.06R VSB 1/2
CLINTON        CLOUDY    70  70 100 CALM      30.07R
$$

ARZ036-241200-
EAST ARKANSAS

CITY           SKY/WX    TMP DP  RH WIND       PRES   REMARKS
WEST MEMPHIS   CLEAR     69  69 100 CALM      30.00R
$$

ARZ050-053-066-070-073-241200-
SOUTHWEST ARKANSAS

CITY           SKY/WX    TMP DP  RH WIND       PRES   REMARKS
ARKADELPHIA    CLOUDY    69  69 100 NE6       30.04S FOG
CAMDEN         CLOUDY    70  66  88 N3        30.03R FOG
TEXARKANA      FOG       68  68 100 CALM      30.05R VSB 3/4
EL DORADO      CLOUDY    69  69 100 N3        30.03S FOG
$$

ARZ056-057-069-241200-
SOUTHEAST ARKANSAS

CITY           SKY/WX    TMP DP  RH WIND       PRES   REMARKS
PINE BLUFF     CLEAR     68  67  96 N3        30.03R FOG
STUTTGART      CLEAR     70  66  88 N6        30.03R
MONTICELLO     CLEAR     71  69  93 CALM      30.01R

$$




USA.gov is the U.S. government's official web portal to all federal, state and local government web resources and services.